NUCOR Weather Reports


Display with metric or nautical units.
time (UTC)temp
F
wind
direction
speed
MPH
gust
MPH
rain 1hr
in
rain 24hr
in
rain mn
in
humidity
%
barometer
mb
20260504151002 70 242 3.0 15.0 0.00 0.00 0.00 57 1026.8
20260504150500 70 244 6.0 15.0 0.00 0.00 0.00 55 1026.5
20260504140936 66 235 4.0 13.0 0.00 0.00 0.00 59 1026.9
20260504140435 65 244 4.0 13.0 0.00 0.00 0.00 61 1026.9
20260504130343 61 222 5.0 11.0 0.00 0.00 0.00 61 1027.0
20260504120253 58 216 2.0 11.0 0.00 0.00 0.00 65 1026.6
20260504110222 55 197 0.0 11.0 0.00 0.00 0.00 66 1026.2
20260504081003 56 192 1.0 11.0 0.00 0.00 0.00 64 1025.9
20260504080502 56 193 0.0 11.0 0.00 0.00 0.00 64 1026.0
20260504050304 56 200 0.0 11.0 0.00 0.00 0.00 62 1027.6
20260504045803 56 200 0.0 11.0 0.00 0.00 0.00 62 1027.5
20260504045304 56 200 0.0 11.0 0.00 0.00 0.00 62 1027.7
20260504044801 57 198 0.0 11.0 0.00 0.00 0.00 62 1027.4
20260504044300 56 200 1.0 11.0 0.00 0.00 0.00 61 1027.6
20260504043759 57 198 0.0 11.0 0.00 0.00 0.00 62 1027.4
20260504043258 57 198 0.0 11.0 0.00 0.00 0.00 61 1027.5
20260504042757 57 205 0.0 11.0 0.00 0.00 0.00 60 1027.5
20260504042256 57 205 0.0 11.0 0.00 0.00 0.00 60 1027.3
20260504041752 56 212 1.0 11.0 0.00 0.00 0.00 60 1027.5
20260504041251 56 212 0.0 11.0 0.00 0.00 0.00 61 1027.5
20260504040750 56 203 1.0 11.0 0.00 0.00 0.00 62 1027.3
20260504040249 56 195 0.0 11.0 0.00 0.00 0.00 62 1027.3
20260504035748 56 199 0.0 11.0 0.00 0.00 0.00 62 1027.5
20260504034731 57 200 1.0 11.0 0.00 0.00 0.00 62 1027.3
20260504033158 57 204 0.0 11.0 0.00 0.00 0.00 59 1027.9
20260504032657 58 207 1.0 11.0 0.00 0.00 0.00 59 1027.8
20260504032156 58 203 1.0 11.0 0.00 0.00 0.00 58 1028.1
20260504031655 58 195 0.0 11.0 0.00 0.00 0.00 57 1028.1
20260504031154 58 195 0.0 11.0 0.00 0.00 0.00 57 1028.1
20260504030653 58 209 0.0 11.0 0.00 0.00 0.00 56 1028.0
20260504030152 59 212 0.0 11.0 0.00 0.00 0.00 56 1028.2
20260504025651 59 207 0.0 11.0 0.00 0.00 0.00 56 1028.3
20260504025150 59 208 0.0 11.0 0.00 0.00 0.00 56 1028.1
20260504024126 59 207 1.0 11.0 0.00 0.00 0.00 57 1028.2
20260504023109 59 220 2.0 11.0 0.00 0.00 0.00 56 1028.2
20260504022608 59 224 1.0 11.0 0.00 0.00 0.00 55 1028.3
20260504021551 60 228 2.0 11.0 0.00 0.00 0.00 56 1028.2
20260504021050 60 235 1.0 11.0 0.00 0.00 0.00 56 1027.8
20260504020549 60 234 2.0 11.0 0.00 0.00 0.00 55 1027.7
20260504020048 60 245 1.0 11.0 0.00 0.00 0.00 54 1027.9
20260504015543 61 245 0.0 11.0 0.00 0.00 0.00 53 1028.0
20260504015042 61 235 1.0 11.0 0.00 0.00 0.00 53 1027.7
20260504014541 61 218 1.0 11.0 0.00 0.00 0.00 52 1027.6
20260504013009 61 224 1.0 11.0 0.00 0.00 0.00 51 1027.3
20260504011432 62 206 1.0 11.0 0.00 0.00 0.00 51 1027.3
20260504010931 62 214 1.0 11.0 0.00 0.00 0.00 50 1027.3
20260504010431 62 209 1.0 11.0 0.00 0.00 0.00 50 1027.1
20260504005930 63 207 0.0 11.0 0.00 0.00 0.00 49 1027.0
20260504004913 64 208 1.0 11.0 0.00 0.00 0.00 47 1027.3
20260504004412 64 211 1.0 11.0 0.00 0.00 0.00 47 1027.1
20260504003911 64 212 1.0 11.0 0.00 0.00 0.00 46 1027.1
20260504003407 65 211 1.0 11.0 0.00 0.00 0.00 45 1027.3
20260504002350 65 242 1.0 11.0 0.00 0.00 0.00 44 1027.4
20260504001849 66 240 2.0 11.0 0.00 0.00 0.00 43 1027.4
20260504001348 66 245 2.0 11.0 0.00 0.00 0.00 42 1027.3
20260504000847 67 248 1.0 11.0 0.00 0.00 0.00 42 1027.3
20260504000346 67 251 1.0 11.0 0.00 0.00 0.00 41 1027.0
20260503235845 68 257 1.0 11.0 0.00 0.00 0.00 40 1027.6
20260503235344 68 282 1.0 11.0 0.00 0.00 0.00 39 1027.6
20260503234843 69 263 1.0 11.0 0.00 0.00 0.00 39 1027.5
20260503234343 69 289 0.0 11.0 0.00 0.00 0.00 39 1027.7
20260503233841 69 294 2.0 11.0 0.00 0.00 0.00 40 1027.7
20260503233340 69 272 1.0 11.0 0.00 0.00 0.00 39 1027.7
20260503232839 69 293 1.0 11.0 0.00 0.00 0.00 39 1027.9
20260503232338 69 252 1.0 11.0 0.00 0.00 0.00 40 1027.9
20260503230805 69 285 0.0 11.0 0.00 0.00 0.00 38 1028.0
20260503230300 69 259 4.0 11.0 0.00 0.00 0.00 38 1028.1
20260503225759 69 294 1.0 11.0 0.00 0.00 0.00 38 1027.9
20260503225258 70 273 4.0 11.0 0.00 0.00 0.00 37 1027.7
20260503224757 70 270 1.0 11.0 0.00 0.00 0.00 38 1028.1
20260503224257 70 282 2.0 11.0 0.00 0.00 0.00 37 1028.2
20260503223239 70 235 4.0 11.0 0.00 0.00 0.00 37 1028.2
20260503222738 70 224 2.0 11.0 0.00 0.00 0.00 37 1028.1
20260503222238 69 265 2.0 11.0 0.00 0.00 0.00 37 1028.4
20260503221736 69 244 3.0 11.0 0.00 0.00 0.00 38 1028.2
20260503220720 69 315 4.0 11.0 0.00 0.00 0.00 36 1028.3
20260503220218 70 283 3.0 11.0 0.00 0.00 0.00 35 1028.3
20260503215717 70 240 3.0 11.0 0.00 0.00 0.00 35 1028.3
20260503214657 69 321 5.0 11.0 0.00 0.00 0.00 35 1028.4
20260503214157 69 314 4.0 11.0 0.00 0.00 0.00 36 1028.6
20260503212624 69 352 4.0 11.0 0.00 0.00 0.00 36 1028.8
20260503212123 69 338 4.0 11.0 0.00 0.00 0.00 35 1028.7
20260503211622 69 300 3.0 11.0 0.00 0.00 0.00 34 1028.4
20260503211122 69 290 4.0 11.0 0.00 0.00 0.00 33 1028.9
20260503210621 69 280 3.0 11.0 0.00 0.00 0.00 34 1029.1
20260503210120 68 236 2.0 11.0 0.00 0.00 0.00 35 1029.1
20260503205619 68 273 4.0 13.0 0.00 0.00 0.00 33 1028.9
20260503205118 68 322 4.0 13.0 0.00 0.00 0.00 33 1029.1
20260503202513 68 266 4.0 11.0 0.00 0.00 0.00 37 1029.3
20260503202012 68 313 3.0 11.0 0.00 0.00 0.00 37 1029.5
20260503201510 68 300 2.0 11.0 0.00 0.00 0.00 37 1029.6
20260503201010 68 257 5.0 11.0 0.00 0.00 0.00 37 1029.7
20260503200509 68 298 5.0 12.0 0.00 0.00 0.00 37 1030.2
20260503195449 67 283 4.0 12.0 0.00 0.00 0.00 37 1030.1
20260503194948 67 314 1.0 12.0 0.00 0.00 0.00 37 1030.2
20260503194447 67 308 3.0 12.0 0.00 0.00 0.00 40 1030.5
20260503193946 66 318 4.0 12.0 0.00 0.00 0.00 41 1030.5
20260503192938 66 338 8.0 13.0 0.00 0.00 0.00 39 1030.4
20260503191918 65 252 4.0 11.0 0.00 0.00 0.00 39 1030.8
20260503190901 66 311 4.0 11.0 0.00 0.00 0.00 38 1030.9
20260503190357 66 255 3.0 11.0 0.00 0.00 0.00 39 1031.4
20260503185856 66 332 2.0 11.0 0.00 0.00 0.00 41 1031.1
20260503185355 65 334 2.0 11.0 0.00 0.00 0.00 43 1030.9
20260503184854 65 295 2.0 11.0 0.00 0.00 0.00 43 1030.8
20260503184353 64 307 4.0 11.0 0.00 0.00 0.00 45 1030.9
20260503183849 64 342 3.0 12.0 0.00 0.00 0.00 44 1031.0
20260503183348 64 327 6.0 12.0 0.00 0.00 0.00 44 1031.1
20260503182847 64 272 2.0 11.0 0.00 0.00 0.00 44 1031.2
20260503182346 64 293 2.0 11.0 0.00 0.00 0.00 42 1031.2
20260503181845 64 282 2.0 11.0 0.00 0.00 0.00 43 1031.4
20260503181344 64 290 3.0 13.0 0.00 0.00 0.00 43 1031.5
20260503180327 63 126 2.0 13.0 0.00 0.00 0.00 46 1031.5
20260503175822 63 270 2.0 13.0 0.00 0.00 0.00 46 1031.4
20260503175317 63 300 2.0 13.0 0.00 0.00 0.00 47 1031.4
20260503174816 63 338 2.0 13.0 0.00 0.00 0.00 46 1031.7
20260503174315 63 233 3.0 13.0 0.00 0.00 0.00 48 1031.7
20260503173814 62 0 1.0 13.0 0.00 0.00 0.00 46 1032.0
20260503172758 62 207 0.0 13.0 0.00 0.00 0.00 48 1032.0
20260503172257 61 297 1.0 13.0 0.00 0.00 0.00 48 1031.9
20260503171756 61 317 1.0 13.0 0.00 0.00 0.00 49 1032.3
20260503171255 61 233 1.0 13.0 0.00 0.00 0.00 48 1032.3
20260503170754 61 248 4.0 13.0 0.00 0.00 0.00 50 1032.2
20260503170253 61 79 0.0 13.0 0.00 0.00 0.00 49 1032.3